{"data":{"norad_id":66613,"epoch":"2026-09-20T15:51:16.772256Z","epoch_age_seconds":72544,"freshness":"FRESH","line1":"1 66613U 25270AB  26263.66061079  .00011725  00000+0  43457-3 0  9993","line2":"2 66613  42.9995  35.1290 0001243 263.1909  96.8801 15.27606995 47522","mean_motion":15.27606995,"eccentricity":0.0001243,"inclination_deg":42.9995,"raan_deg":35.129,"arg_perigee_deg":263.1909,"mean_anomaly_deg":96.8801,"bstar":0.00043457,"rev_number":4752,"period_min":94.265082885405,"perigee_km":482.11542910424,"apogee_km":483.82109987299,"semimajor_km":6861.1052644886,"source":"CELESTRAK","updated_at":"2026-09-21T09:00:35.981093Z"}}